{"data":{"norad_id":82162,"epoch":"2026-05-24T02:37:40.726560Z","epoch_age_seconds":162150,"freshness":"FRESH","line1":"1 82162U          26144.10949915  .00003040  00000+0  44712-2 0  9990","line2":"2 82162 100.4648  83.0091 0043044 190.5337 169.4899 13.54834201526288","mean_motion":13.54834201,"eccentricity":0.0043044,"inclination_deg":100.4648,"raan_deg":83.0091,"arg_perigee_deg":190.5337,"mean_anomaly_deg":169.4899,"bstar":0.0044712,"rev_number":52628,"period_min":106.28606798803,"perigee_km":1022.532248331,"apogee_km":1086.5185524032,"semimajor_km":7432.6624003671,"source":"CELESTRAK","updated_at":"2026-05-25T13:38:11.182394Z"}}